Weather History for Cumberland, WI

Change the Weather History Date:

Tuesday, January 22, 2013

  Actual Average (KRPD) Record (KRPD)
Temperature  
Mean Temperature -9 °F -  
Max Temperature -2 °F 19 °F - (-1)
Min Temperature -16 °F 3 °F - (-1)
Degree Days  
Heating Degree Days 74    
Moisture  
Dew Point -17 °F    
Average Humidity 69    
Maximum Humidity 78    
Minimum Humidity 59    
Precipitation  
Precipitation 0.00 in - - ()
Sea Level Pressure  
Sea Level Pressure 30.24 in    
Wind  
Wind Speed 6 mph (West)    
Max Wind Speed 10 mph    
Max Gust Speed -    
Visibility 10 miles    
Events      
Averages and records for this station are not official NWS values.
T = Trace of Precipitation, MM = Missing Value Source: NWS Daily Summary

Daily Weather History Graph

Daily Weather History Graph

Search for Another Location

Airport:

Trip Planner

Search our weather history database for the weather conditions in past years. The results will help you decide how hot, cold, wet, or windy it might be!

Date:

Astronomy

Jan. 22, 2013 Rise Set
Actual Time 7:38 AM CST 5:00 PM CST
Civil Twilight 7:06 AM CST 5:33 PM CST
Nautical Twilight 6:30 AM CST 6:09 PM CST
Astronomical Twilight 5:55 AM CST 6:44 PM CST
Moon 1:21 PM CST (1/22) 4:02 AM CST (1/22)
Length of Visible Light 10h 26m
Length of Day
9h 21m
Waxing Gibbous, 83% of the Moon is Illuminated
Jan 22
Waxing Gibbous
Jan 26
Full
Feb 3
Last Quarter
Feb 10
New
Feb 17
First Quarter

Hourly Weather History & Observations

Time (CST) Temp. Windchill Dew Point Humidity Pressure Visibility Wind Dir Wind Speed Gust Speed Precip Events Conditions
12:15 AM -13.0 °F -27.0 °F -18.4 °F 77% 30.20 in 10.0 mi West 5.8 mph - N/A   Clear
12:35 AM -13.0 °F -27.0 °F -18.4 °F 77% 30.20 in 10.0 mi West 5.8 mph - N/A   Clear
12:55 AM -13.0 °F -27.0 °F -18.4 °F 77% 30.20 in 10.0 mi WNW 5.8 mph - N/A   Clear
1:15 AM -13.0 °F -28.6 °F -18.4 °F 77% 30.21 in 10.0 mi WNW 6.9 mph - N/A   Clear
1:55 AM -13.0 °F -27.0 °F -18.4 °F 77% 30.22 in 10.0 mi West 5.8 mph - N/A   Clear
2:15 AM -14.8 °F -29.1 °F -20.2 °F 77% 30.23 in 10.0 mi West 5.8 mph - N/A   Clear
2:35 AM -14.8 °F -29.1 °F -20.2 °F 77% 30.24 in 10.0 mi West 5.8 mph - N/A   Clear
2:55 AM -14.8 °F -30.8 °F -20.2 °F 77% 30.24 in 10.0 mi West 6.9 mph - N/A   Clear
3:15 AM -14.8 °F -29.1 °F -20.2 °F 77% 30.23 in 10.0 mi WNW 5.8 mph - N/A   Clear
3:35 AM -14.8 °F -29.1 °F -20.2 °F 77% 30.24 in 10.0 mi WNW 5.8 mph - N/A   Clear
3:55 AM -14.8 °F -29.1 °F -20.2 °F 77% 30.24 in 10.0 mi WNW 5.8 mph - N/A   Clear
4:15 AM -14.8 °F -29.1 °F -22.0 °F 70% 30.23 in 10.0 mi NW 5.8 mph - N/A   Clear
4:35 AM -14.8 °F -29.1 °F -22.0 °F 70% 30.24 in 10.0 mi WNW 5.8 mph - N/A   Clear
4:55 AM -14.8 °F -27.2 °F -22.0 °F 70% 30.25 in 10.0 mi WNW 4.6 mph - N/A   Clear
5:15 AM -14.8 °F -29.1 °F -22.0 °F 70% 30.25 in 10.0 mi WNW 5.8 mph - N/A   Clear
5:35 AM -14.8 °F -27.2 °F -22.0 °F 70% 30.26 in 10.0 mi WNW 4.6 mph - N/A   Clear
5:55 AM -16.6 °F -29.3 °F -22.0 °F 76% 30.26 in 10.0 mi WNW 4.6 mph - N/A   Clear
6:15 AM -16.6 °F -29.3 °F -22.0 °F 76% 30.26 in 10.0 mi NW 4.6 mph - N/A   Clear
6:35 AM -16.6 °F -29.3 °F -23.8 °F 70% 30.26 in 10.0 mi WNW 4.6 mph - N/A   Clear
6:55 AM -16.6 °F -31.3 °F -23.8 °F 70% 30.27 in 10.0 mi NW 5.8 mph - N/A   Clear
7:15 AM -16.6 °F -31.3 °F -23.8 °F 70% 30.26 in 10.0 mi NW 5.8 mph - N/A   Clear
7:35 AM -16.6 °F -32.9 °F -23.8 °F 70% 30.26 in 10.0 mi NW 6.9 mph - N/A   Clear
7:55 AM -16.6 °F -29.3 °F -23.8 °F 70% 30.26 in 10.0 mi NNW 4.6 mph - N/A   Clear
8:15 AM -16.6 °F -26.8 °F -23.8 °F 70% 30.26 in 10.0 mi NNW 3.5 mph - N/A   Clear
8:35 AM -14.8 °F -27.2 °F -22.0 °F 70% 30.26 in 10.0 mi NW 4.6 mph - N/A   Clear
8:55 AM -14.8 °F -27.2 °F -22.0 °F 70% 30.26 in 10.0 mi WNW 4.6 mph - N/A   Clear
9:15 AM -14.8 °F -29.1 °F -22.0 °F 70% 30.27 in 10.0 mi WNW 5.8 mph - N/A   Clear
9:35 AM -14.8 °F -29.1 °F -22.0 °F 70% 30.28 in 10.0 mi NW 5.8 mph - N/A   Clear
9:55 AM -13.0 °F -31.3 °F -20.2 °F 70% 30.29 in 10.0 mi WNW 9.2 mph - N/A   Clear
10:15 AM -11.2 °F -26.4 °F -20.2 °F 64% 30.30 in 10.0 mi West 6.9 mph - N/A   Clear
10:35 AM -9.4 °F -20.9 °F -18.4 °F 65% 30.30 in 10.0 mi WNW 4.6 mph - N/A   Clear
10:55 AM -9.4 °F -18.6 °F -18.4 °F 65% 30.30 in 10.0 mi NW 3.5 mph - N/A   Clear
11:15 AM -9.4 °F -18.6 °F -18.4 °F 65% 30.30 in 10.0 mi NW 3.5 mph - N/A   Clear
11:35 AM -7.6 °F -18.8 °F -18.4 °F 59% 30.28 in 10.0 mi West 4.6 mph - N/A   Clear
11:55 AM -7.6 °F -20.6 °F -18.4 °F 59% 30.28 in 10.0 mi West 5.8 mph - N/A   Clear
12:15 PM -5.8 °F -19.9 °F -16.6 °F 60% 30.28 in 10.0 mi WSW 6.9 mph - N/A   Clear
12:35 PM -5.8 °F -18.4 °F -16.6 °F 60% 30.27 in 10.0 mi West 5.8 mph - N/A   Clear
12:55 PM -5.8 °F -18.4 °F -16.6 °F 60% 30.27 in 10.0 mi WSW 5.8 mph - N/A   Clear
1:15 PM -5.8 °F -22.4 °F -16.6 °F 60% 30.26 in 10.0 mi WSW 9.2 mph - N/A   Clear
1:35 PM -4.0 °F -21.2 °F -14.8 °F 60% 30.26 in 10.0 mi West 10.4 mph - N/A   Clear
1:55 PM -4.0 °F -20.2 °F -14.8 °F 60% 30.26 in 10.0 mi West 9.2 mph - N/A   Clear
2:15 PM -4.0 °F -20.2 °F -14.8 °F 60% 30.26 in 10.0 mi West 9.2 mph - N/A   Clear
2:35 PM -4.0 °F -19.0 °F -14.8 °F 60% 30.25 in 10.0 mi West 8.1 mph - N/A   Clear
2:55 PM -4.0 °F -21.2 °F -14.8 °F 60% 30.25 in 10.0 mi West 10.4 mph - N/A   Clear
3:15 PM -4.0 °F -19.0 °F -14.8 °F 60% 30.25 in 10.0 mi West 8.1 mph - N/A   Clear
3:35 PM -4.0 °F -19.0 °F -14.8 °F 60% 30.25 in 10.0 mi WSW 8.1 mph - N/A   Clear
3:55 PM -4.0 °F -17.8 °F -13.0 °F 65% 30.25 in 10.0 mi West 6.9 mph - N/A   Clear
4:15 PM -4.0 °F -17.8 °F -13.0 °F 65% 30.25 in 10.0 mi SW 6.9 mph - N/A   Clear
4:35 PM -4.0 °F -17.8 °F -13.0 °F 65% 30.24 in 10.0 mi SW 6.9 mph - N/A   Clear
4:55 PM -4.0 °F -16.3 °F -13.0 °F 65% 30.24 in 10.0 mi WSW 5.8 mph - N/A   Clear
5:15 PM -4.0 °F -16.3 °F -13.0 °F 65% 30.24 in 10.0 mi WSW 5.8 mph - N/A   Clear
5:35 PM -4.0 °F -17.8 °F -13.0 °F 65% 30.24 in 10.0 mi WSW 6.9 mph - N/A   Clear
5:55 PM -4.0 °F -16.3 °F -13.0 °F 65% 30.24 in 10.0 mi WSW 5.8 mph - N/A   Clear
6:15 PM -4.0 °F -14.6 °F -13.0 °F 65% 30.23 in 10.0 mi WSW 4.6 mph - N/A   Clear
6:35 PM -4.0 °F -14.6 °F -13.0 °F 65% 30.23 in 10.0 mi SW 4.6 mph - N/A   Clear
6:55 PM -4.0 °F -12.4 °F -11.2 °F 71% 30.22 in 10.0 mi SSW 3.5 mph - N/A   Clear
7:15 PM -4.0 °F -14.6 °F -11.2 °F 71% 30.21 in 10.0 mi SW 4.6 mph - N/A   Clear
7:35 PM -2.2 °F -10.4 °F -11.2 °F 66% 30.21 in 10.0 mi SW 3.5 mph - N/A   Clear
7:55 PM -4.0 °F -14.6 °F -9.4 °F 78% 30.20 in 10.0 mi SW 4.6 mph - N/A   Clear
8:15 PM -2.2 °F -10.4 °F -9.4 °F 71% 30.21 in 10.0 mi SW 3.5 mph - N/A   Clear
8:35 PM -4.0 °F -12.4 °F -9.4 °F 78% 30.20 in 10.0 mi SW 3.5 mph - N/A   Clear
8:55 PM -2.2 °F -12.5 °F -9.4 °F 71% 30.20 in 10.0 mi SW 4.6 mph - N/A   Clear
9:15 PM -4.0 °F -17.8 °F -9.4 °F 78% 30.20 in 10.0 mi SW 6.9 mph - N/A   Clear
9:35 PM -4.0 °F -16.3 °F -11.2 °F 71% 30.19 in 10.0 mi SW 5.8 mph - N/A   Scattered Clouds
9:55 PM -4.0 °F -17.8 °F -11.2 °F 71% 30.19 in 10.0 mi SW 6.9 mph - N/A   Clear
10:15 PM -4.0 °F -14.6 °F -11.2 °F 71% 30.19 in 10.0 mi SW 4.6 mph - N/A   Scattered Clouds
10:35 PM -4.0 °F -14.6 °F -11.2 °F 71% 30.19 in 10.0 mi WSW 4.6 mph - N/A   Scattered Clouds
10:55 PM -4.0 °F -12.4 °F -11.2 °F 71% 30.19 in 10.0 mi SW 3.5 mph - N/A   Clear
11:15 PM -4.0 °F -14.6 °F -11.2 °F 71% 30.18 in 10.0 mi SW 4.6 mph - N/A   Scattered Clouds
11:35 PM -4.0 °F -14.6 °F -11.2 °F 71% 30.18 in 10.0 mi SW 4.6 mph - N/A   Clear
11:55 PM -4.0 °F - -11.2 °F 71% 30.17 in 10.0 mi Calm Calm - N/A   Clear